Location: Austin
(30.3000°N, 97.7500°W)
Time: 10:33:58
(UTC-05:00)

Cosmos 2322 - Pass Details

Date: 26 May 2023
Orbit: 841 x 853 km, 71.0° (Epoch: 31 May)

Event Time Altitude Azimuth Distance (km) Brightness Sun altitude
Rises 21:09:34 0° 186° (S) 3,380 6.6 -9.3°
Reaches altitude 10° 21:12:03 10° 182° (S) 2,448 5.8 -9.8°
Maximum altitude 21:17:30 54° 106° (ESE) 1,018 3.8 -10.8°
Drops below altitude 10° 21:22:58 10° 30° (NNE) 2,460 6.2 -11.8°
Sets 21:25:28 0° 26° (NNE) 3,399 7.0 -12.2°
